Wetbulb
58.87 58.98 59.09 59.18 59.08 59.18 59.36 59.44 59.41 59.46 59.69 59.91 60.01 59.95 60.09 60.38 59.75 53.65 46.50 53.11 54.96 64.23 57.99 51.43 50.93 49.64 49.67 48.30 47.58 45.14 38.88 35.40 38.04 37.09 40.34 43.07 42.50 44.18 44.86 44.69 44.75 46.18 46.35 47.84 46.15
58.56 58.63 58.85 58.89 58.81 58.79 58.75 58.74 58.71 58.88 59.16 59.33 59.54 59.80 59.75 59.98 52.17 47.92 56.13 62.06 65.18 61.90 50.68 49.18 47.56 47.95 45.69 46.12 46.47 43.23 36.97 37.82 40.16 39.64 41.33 42.97 42.91 44.12 44.08 44.08 42.80 44.68 46.13 45.46 45.58
58.38 58.43 58.54 58.64 58.59 58.77 58.88 58.85 58.74 58.73 58.78 58.81 59.02 59.38 59.41 57.15 44.56 44.02 62.40 63.01 65.23 59.57 50.66 49.27 48.25 47.51 44.31 45.20 44.82 42.28 39.69 40.54 41.73 41.47 42.88 42.92 41.73 43.96 42.99 43.00 43.79 44.38 46.52 45.12 44.12
58.53 58.38 58.41 58.37 58.45 58.70 58.86 58.93 59.19 59.01 58.88 58.69 58.74 58.93 59.41 51.04 38.19 44.99 63.71 64.75 64.79 51.77 50.03 47.83 46.88 44.57 42.75 42.05 44.40 40.65 42.75 42.14 44.04 43.94 43.05 42.29 42.94 41.83 42.68 47.79 47.71 46.27 46.85 45.44 44.19
58.49 58.39 58.41 58.31 58.40 58.68 58.83 58.96 59.26 59.40 58.96 58.84 58.63 58.73 51.04 40.54 43.80 55.20 63.63 63.76 52.42 50.35 48.44 46.48 45.05 43.74 41.38 41.24 42.02 40.96 41.88 43.58 43.76 43.21 43.10 43.12 43.23 42.78 42.63 46.06 45.89 44.95 44.00 44.30 44.09
58.41 58.20 58.18 58.28 58.40 58.69 58.86 59.00 59.15 59.46 59.03 58.87 58.63 58.29 43.99 38.49 47.64 57.23 56.49 52.41 50.65 48.78 46.67 46.52 45.35 45.18 42.06 41.21 41.37 41.04 41.72 41.65 41.91 42.43 42.35 42.64 43.85 41.69 44.02 44.76 44.50 43.30 44.07 43.44 43.07
58.49 58.12 57.94 58.05 58.52 58.66 58.85 58.95 59.04 59.18 58.84 58.98 58.41 55.20 42.50 43.08 49.00 52.81 52.53 49.54 49.46 47.91 45.49 45.86 46.14 45.07 43.20 39.99 41.77 40.65 39.23 39.32 39.11 40.34 40.62 40.86 39.68 38.22 45.16 42.24 43.80 43.93 42.82 42.30 43.37
58.14 57.64 57.53 57.80 58.22 58.53 58.81 59.08 58.97 58.35 59.04 58.24 58.27 50.95 39.10 47.49 48.68 49.39 47.34 45.86 47.34 46.69 46.63 46.42 46.24 44.77 42.62 42.25 39.87 36.33 35.77 33.57 37.87 38.62 39.11 41.06 35.64 41.90 42.33 40.43 41.74 42.30 42.66 43.13 43.85
57.68 57.32 57.52 57.85 57.93 58.09 58.50 58.58 57.82 59.32 58.53 58.45 50.07 42.46 39.65 50.95 45.87 46.95 46.29 45.48 45.67 45.27 45.99 47.72 45.50 41.41 40.29 36.38 33.83 32.95 30.77 30.95 34.51 38.85 38.70 38.43 36.04 40.52 40.87 40.26 41.30 42.67 44.35 43.51 45.62
57.66 57.49 57.75 57.94 57.94 58.09 58.16 56.11 55.88 55.17 56.36 56.42 51.13 40.47 42.60 41.59 46.06 45.70 45.02 46.35 43.77 43.72 43.27 42.30 38.57 36.54 33.93 33.91 29.67 30.63 28.72 30.16 31.60 37.12 35.10 34.97 35.47 39.62 42.03 40.90 42.18 43.05 43.41 44.44 45.10
57.97 58.01 58.09 57.98 58.20 58.56 52.23 45.13 45.16 42.39 43.37 41.12 41.51 39.66 40.59 44.13 45.73 43.93 45.70 44.86 43.07 40.60 36.47 37.62 34.06 32.50 36.89 35.86 34.04 31.71 30.60 29.92 33.13 36.78 34.41 36.64 36.89 37.97 40.60 39.92 41.01 42.71 43.75 43.66 43.95
58.38 58.36 58.25 58.06 58.17 57.14 47.58 43.77 42.70 42.96 38.60 44.09 43.39 43.12 44.15 44.91 41.15 42.20 45.51 41.44 39.15 35.75 35.82 33.69 31.07 36.87 36.19 35.05 34.42 33.33 32.52 31.74 35.36 37.53 33.57 33.97 35.56 39.45 40.71 41.35 42.25 42.70 43.21 42.80 42.72
58.57 58.32 58.16 57.97 57.56 52.27 45.30 44.85 47.23 45.37 36.20 40.97 41.72 40.41 42.06 44.55 40.50 40.94 43.83 39.42 36.55 33.76 33.86 33.35 35.58 37.51 35.82 33.55 33.27 31.15 30.18 32.38 31.71 33.30 33.62 31.34 32.06 33.28 38.24 38.63 40.54 42.18 42.72 42.52 42.33
58.17 58.11 58.12 58.08 53.15 48.77 46.23 46.73 47.14 43.34 35.04 38.12 37.51 39.29 40.84 41.00 36.77 40.68 41.41 39.15 35.34 35.03 33.98 33.05 36.43 35.92 32.58 32.38 33.94 31.23 34.56 33.95 31.88 29.71 26.65 32.44 26.33 31.16 36.78 37.77 37.96 39.14 39.18 40.02 40.28
55.23 56.51 57.91 56.44 51.92 50.23 48.35 48.53 47.23 41.17 31.38 38.29 36.08 42.51 40.22 36.28 35.64 37.49 39.24 38.36 33.39 33.46 33.71 33.47 32.80 31.85 31.92 34.13 34.22 33.02 33.57 31.90 30.89 28.47 27.02 27.23 25.35 30.26 32.88 35.96 37.45 40.07 40.18 41.10 40.81
53.05 53.99 56.51 54.98 52.92 51.58 50.30 48.82 47.18 38.69 31.82 37.67 36.14 35.73 34.81 35.31 34.69 36.31 37.20 38.19 35.34 32.63 32.18 32.81 34.40 34.78 35.14 33.89 34.85 34.35 31.63 30.36 27.91 27.46 22.63 28.33 28.04 28.55 32.14 35.33 36.05 39.75 40.88 39.67 39.54
51.66 52.20 55.55 55.27 52.66 51.98 52.37 50.60 39.42 33.71 42.56 36.42 32.59 34.50 32.41 32.26 34.00 34.09 32.65 31.68 31.01 27.77 27.15 30.53 31.95 33.71 34.49 31.71 33.50 33.20 29.45 23.80 21.62 20.74 22.96 27.09 25.87 31.20 35.36 37.46 38.13 39.57 39.33 39.12 37.77
50.34 51.36 53.25 55.16 52.47 53.53 53.34 45.94 33.22 38.62 38.83 41.45 40.00 38.67 36.10 36.92 38.07 35.65 33.34 31.80 33.69 32.39 28.91 27.00 29.71 31.99 34.17 35.13 33.76 31.16 32.27 27.24 21.85 19.12 25.66 27.62 26.78 32.80 36.96 38.66 37.70 36.55 37.50 38.17 37.89
48.95 49.07 50.55 53.09 52.94 53.57 47.93 36.86 36.02 37.44 40.14 40.01 40.14 37.11 33.99 34.05 36.80 33.67 32.37 32.88 35.38 34.81 32.98 31.76 29.86 32.31 32.39 33.70 36.30 30.72 29.25 33.66 28.36 27.97 23.30 28.43 32.43 38.73 37.98 36.89 35.69 36.36 36.17 35.37 35.05
42.94 43.00 46.52 52.93 53.31 51.64 42.59 36.15 38.72 42.21 43.01 42.54 37.38 39.08 33.78 33.54 32.65 33.71 33.87 34.12 33.45 35.63 37.53 36.55 31.89 35.83 34.67 32.09 31.14 33.23 34.84 28.18 27.45 21.76 21.62 26.99 27.37 31.21 34.56 35.16 35.23 32.84 32.83 33.83 34.41
42.31 37.71 43.35 53.12 53.26 45.11 35.13 35.77 38.69 43.06 43.84 40.91 39.50 38.17 38.49 37.17 37.15 36.63 37.03 40.20 38.07 36.81 36.34 37.17 35.60 33.79 35.03 30.51 31.32 29.04 28.60 29.62 29.49 29.41 25.30 24.28 26.91 37.44 34.40 31.01 31.30 32.13 32.92 32.04 31.73
40.65 27.88 46.39 53.03 40.72 41.27 36.55 37.17 40.55 39.46 41.24 40.37 41.02 40.02 38.16 38.38 36.81 36.22 35.93 38.74 42.84 40.99 36.55 37.55 35.38 30.72 33.05 37.71 33.83 33.83 34.38 33.57 28.07 26.45 27.73 29.11 29.45 38.54 32.07 31.49 31.23 29.35 29.76 30.40 30.82
35.14 34.67 45.08 49.80 32.42 35.05 37.27 39.09 40.64 37.94 38.42 38.90 37.96 39.55 38.84 36.52 33.36 35.72 36.63 39.65 40.80 40.14 37.64 37.91 32.59 28.70 28.86 30.90 32.73 33.26 35.14 34.40 33.08 31.81 28.09 25.36 28.17 37.56 37.18 30.23 29.54 27.86 28.11 29.33 30.25
33.06 25.05 33.15 43.79 38.42 35.23 31.02 32.77 32.99 36.76 38.33 39.68 38.44 38.57 36.36 35.10 36.82 34.75 35.88 38.35 39.00 39.30 41.94 40.80 33.34 31.31 27.14 29.76 33.58 31.11 32.19 31.51 29.68 24.01 25.79 26.55 26.81 31.69 33.46 26.83 26.45 28.51 28.29 28.46 29.03
29.96 26.68 32.03 27.97 32.49 30.13 35.51 33.10 30.52 30.18 35.51 35.66 33.06 34.40 32.63 30.56 30.74 31.78 34.64 34.02 36.46 36.16 36.60 36.37 30.23 31.25 33.03 31.75 29.43 28.41 26.79 26.78 25.11 26.46 22.71 25.18 25.58 29.75 24.96 24.15 25.23 26.97 29.14 28.49 26.99
27.73 26.61 29.46 29.76 28.92 30.08 30.48 29.26 30.41 30.82 31.52 30.16 29.90 31.47 30.66 28.66 30.31 29.61 29.75 29.93 29.90 28.35 29.30 31.61 25.24 26.28 23.37 25.81 26.11 23.09 23.32 23.88 24.44 25.08 25.36 25.92 24.52 24.86 25.78 25.41 24.39 25.20 27.22 27.59 25.62
29.72 31.59 31.24 25.59 25.98 24.13 23.84 27.00 26.25 27.71 28.34 27.82 27.06 26.16 25.38 29.14 30.30 30.83 31.05 29.46 29.13 26.98 26.02 25.74 24.86 20.39 18.02 22.78 18.65 15.14 20.38 23.48 23.77 25.00 22.69 19.10 20.30 22.43 21.81 23.19 23.26 23.83 25.47 26.20 25.39
MSLP
1020.69 1020.55 1020.40 1020.25 1020.09 1019.92 1019.72 1019.54 1019.37 1019.25 1019.07 1018.86 1018.63 1018.43 1018.17 1017.93 1017.53 1017.63 1017.10 1015.31 1015.28 1015.61 1015.99 1016.70 1016.97 1017.27 1017.62 1018.35 1018.82 1019.47 1020.34 1020.52 1019.69 1019.38 1017.74 1016.93 1016.71 1016.22 1015.92 1016.06 1016.15 1016.02 1015.78 1015.41 1016.20
1020.76 1020.64 1020.54 1020.40 1020.21 1020.01 1019.81 1019.59 1019.43 1019.27 1019.09 1018.82 1018.55 1018.32 1018.09 1017.87 1017.66 1016.78 1014.96 1014.92 1015.13 1015.47 1016.15 1016.70 1017.29 1017.49 1018.11 1018.59 1019.03 1019.49 1020.28 1019.50 1018.35 1017.94 1017.23 1016.67 1016.48 1015.99 1016.03 1015.80 1015.72 1015.63 1015.16 1015.51 1016.31
1020.82 1020.72 1020.57 1020.47 1020.31 1020.06 1019.85 1019.64 1019.38 1019.13 1018.93 1018.69 1018.43 1018.10 1017.87 1017.71 1017.29 1015.17 1014.46 1014.63 1014.98 1015.30 1015.76 1016.45 1017.07 1017.52 1018.22 1018.59 1018.88 1019.13 1019.11 1018.34 1017.59 1017.14 1016.80 1016.59 1016.25 1015.84 1015.81 1015.08 1014.50 1014.69 1014.49 1014.99 1015.73
1020.77 1020.72 1020.60 1020.42 1020.27 1020.05 1019.76 1019.53 1019.32 1019.01 1018.73 1018.49 1018.28 1017.98 1017.64 1017.62 1016.74 1014.70 1014.46 1014.60 1015.09 1015.53 1016.04 1016.79 1017.34 1017.81 1018.26 1018.63 1018.40 1019.01 1018.11 1017.81 1017.17 1016.79 1016.77 1016.49 1016.04 1015.87 1015.62 1013.26 1013.04 1013.38 1013.76 1014.17 1014.79
1020.67 1020.60 1020.48 1020.35 1020.17 1019.93 1019.64 1019.35 1019.06 1018.86 1018.63 1018.41 1018.18 1017.99 1017.64 1017.36 1015.75 1014.63 1014.61 1014.85 1015.19 1015.50 1016.06 1016.77 1017.23 1017.65 1018.10 1018.28 1018.44 1018.59 1017.79 1017.36 1016.86 1016.93 1016.68 1016.50 1015.62 1015.73 1014.41 1012.80 1012.90 1013.21 1013.53 1013.50 1013.83
1020.58 1020.45 1020.36 1020.20 1020.02 1019.75 1019.42 1019.15 1018.81 1018.47 1018.27 1018.13 1018.09 1018.00 1017.80 1016.85 1014.33 1014.53 1014.85 1015.16 1015.12 1015.50 1016.13 1016.45 1016.69 1017.00 1017.58 1017.90 1018.25 1017.90 1017.70 1017.28 1016.92 1016.72 1016.57 1016.41 1015.16 1015.48 1012.86 1012.52 1012.50 1012.75 1012.33 1012.58 1012.82
1020.37 1020.24 1020.08 1019.89 1019.69 1019.43 1019.05 1018.69 1018.36 1017.95 1017.62 1017.59 1017.77 1018.05 1017.62 1014.99 1014.41 1014.79 1014.87 1015.05 1015.22 1015.35 1015.85 1015.94 1016.05 1016.58 1017.22 1017.55 1017.54 1017.77 1017.83 1017.07 1016.48 1015.94 1016.27 1016.26 1015.96 1014.22 1012.18 1012.80 1012.36 1011.82 1011.78 1011.78 1011.77
1020.20 1020.05 1019.89 1019.66 1019.42 1019.05 1018.61 1018.16 1017.81 1017.45 1017.04 1017.08 1017.53 1017.81 1016.55 1014.65 1014.70 1014.96 1015.10 1015.36 1015.40 1015.49 1015.63 1015.79 1016.10 1016.73 1017.11 1017.29 1017.44 1017.86 1018.18 1017.65 1015.96 1016.07 1015.78 1015.95 1014.84 1012.61 1012.34 1012.46 1012.07 1011.45 1011.15 1011.05 1010.46
1020.01 1019.98 1019.78 1019.55 1019.25 1018.79 1018.22 1017.75 1017.52 1017.27 1017.06 1017.20 1017.74 1017.64 1016.00 1014.83 1014.79 1014.82 1014.92 1015.33 1015.70 1015.89 1015.98 1016.12 1016.50 1017.28 1017.52 1017.75 1018.33 1018.36 1018.01 1017.67 1016.64 1015.35 1015.69 1015.81 1014.50 1012.94 1012.43 1012.64 1012.12 1011.45 1010.73 1010.28 1009.47
1019.78 1019.74 1019.67 1019.43 1019.10 1018.64 1017.86 1017.40 1017.37 1017.45 1017.45 1017.43 1017.36 1017.66 1015.21 1014.76 1014.83 1014.96 1014.99 1015.30 1015.83 1016.28 1016.58 1016.85 1017.48 1017.82 1018.31 1018.44 1018.22 1017.74 1018.11 1017.68 1017.27 1015.73 1015.73 1015.47 1014.33 1013.31 1012.63 1012.47 1011.16 1010.36 1009.49 1008.81 1008.92
1019.55 1019.50 1019.46 1019.34 1019.06 1018.52 1017.92 1017.70 1018.08 1017.97 1017.72 1017.23 1016.74 1016.18 1015.17 1014.86 1014.88 1015.14 1015.12 1015.27 1015.72 1016.57 1017.31 1017.62 1018.17 1017.86 1017.24 1017.14 1017.39 1017.67 1017.66 1017.51 1016.71 1015.84 1015.69 1014.64 1013.67 1013.22 1012.24 1011.47 1009.88 1008.47 1008.10 1008.26 1008.06
1019.26 1019.35 1019.24 1019.12 1018.94 1018.58 1018.52 1019.22 1019.85 1020.16 1018.70 1016.63 1016.07 1015.89 1014.87 1014.70 1015.05 1015.29 1015.52 1015.79 1016.10 1016.65 1017.30 1018.28 1017.78 1017.01 1017.04 1017.20 1017.66 1017.50 1017.40 1017.11 1016.08 1015.42 1015.76 1014.65 1013.16 1012.38 1011.00 1009.04 1008.88 1007.89 1007.24 1008.35 1008.06
1019.10 1019.03 1019.10 1019.09 1018.95 1018.96 1019.51 1019.85 1019.86 1020.08 1019.78 1016.84 1015.98 1015.68 1015.23 1015.22 1015.32 1015.42 1015.65 1016.11 1016.38 1017.04 1017.22 1017.08 1016.48 1016.37 1017.02 1017.20 1017.43 1017.24 1017.36 1016.27 1016.26 1015.93 1015.32 1014.57 1012.65 1011.55 1009.67 1008.74 1008.39 1007.28 1007.79 1008.04 1008.35
1019.08 1018.99 1018.93 1018.96 1019.32 1019.49 1019.65 1019.69 1019.84 1019.96 1019.29 1016.84 1016.00 1015.58 1015.35 1015.19 1015.75 1016.06 1016.03 1016.22 1016.55 1016.66 1017.12 1017.02 1016.48 1016.42 1016.71 1016.88 1016.70 1016.70 1016.08 1016.34 1016.26 1016.95 1016.51 1015.28 1012.48 1011.22 1009.38 1008.66 1007.72 1007.92 1007.83 1007.99 1008.40
1019.23 1019.05 1019.03 1018.89 1019.36 1019.70 1019.66 1019.66 1019.72 1019.91 1018.47 1016.28 1015.77 1015.43 1015.45 1015.81 1016.36 1016.54 1016.43 1016.36 1016.75 1016.72 1017.15 1015.94 1016.12 1016.51 1016.54 1015.92 1015.99 1015.82 1015.57 1016.13 1016.62 1016.83 1016.66 1015.93 1014.74 1010.40 1009.49 1008.56 1007.72 1007.59 1007.71 1008.05 1008.36
1019.28 1019.09 1018.96 1019.29 1019.53 1019.84 1019.68 1019.38 1019.20 1019.70 1017.34 1016.02 1015.45 1015.62 1015.81 1015.95 1016.38 1016.36 1016.62 1016.58 1016.91 1016.95 1016.89 1016.34 1015.97 1015.78 1015.30 1015.21 1015.40 1015.61 1016.11 1016.68 1017.17 1017.55 1016.39 1014.59 1013.91 1010.92 1009.29 1008.00 1007.74 1007.63 1007.56 1007.90 1008.51
1019.47 1019.12 1019.12 1019.13 1019.28 1019.48 1019.80 1019.81 1019.50 1018.68 1016.85 1016.06 1015.87 1015.71 1016.14 1016.29 1016.53 1016.75 1017.13 1017.26 1017.52 1017.35 1017.12 1016.59 1015.62 1015.30 1015.04 1015.45 1015.37 1015.65 1016.69 1017.54 1017.46 1017.64 1015.74 1014.21 1013.52 1010.05 1008.42 1007.82 1008.09 1008.47 1008.48 1008.94 1010.18
1019.38 1019.23 1019.14 1018.92 1018.95 1019.46 1019.92 1019.95 1018.24 1016.51 1016.45 1015.78 1015.65 1015.38 1016.07 1015.70 1016.04 1016.24 1016.74 1017.00 1016.62 1017.20 1017.78 1017.23 1015.69 1014.83 1014.82 1014.65 1014.58 1015.22 1015.92 1016.74 1016.96 1017.10 1015.48 1014.42 1011.10 1009.01 1008.31 1007.98 1009.21 1009.24 1009.38 1010.33 1011.01
1019.15 1019.26 1019.02 1018.79 1019.26 1019.03 1020.30 1019.30 1016.77 1015.88 1015.40 1015.37 1015.45 1015.48 1015.34 1015.39 1015.98 1016.11 1016.13 1015.96 1015.82 1015.93 1016.27 1016.74 1015.42 1014.52 1014.38 1014.02 1014.07 1015.17 1014.89 1014.38 1015.29 1016.08 1015.95 1013.49 1010.70 1008.86 1008.30 1009.13 1009.50 1010.88 1011.87 1012.46 1013.02
1019.86 1019.71 1018.91 1017.79 1018.49 1019.39 1019.48 1018.08 1016.60 1015.70 1015.17 1015.15 1015.39 1015.34 1015.31 1015.93 1015.98 1016.14 1016.16 1015.56 1015.59 1015.70 1015.57 1016.52 1015.90 1015.26 1014.78 1014.42 1014.19 1014.29 1014.30 1014.78 1015.42 1015.53 1014.91 1013.33 1011.87 1009.71 1010.00 1011.20 1012.14 1013.02 1013.99 1014.57 1014.57
1019.88 1019.69 1018.66 1018.29 1018.69 1019.01 1018.60 1017.46 1016.35 1015.68 1015.67 1015.73 1015.49 1015.84 1015.40 1015.82 1015.93 1016.36 1016.31 1015.90 1015.26 1015.21 1015.60 1016.33 1016.44 1015.66 1015.32 1014.68 1014.45 1014.68 1014.57 1014.70 1014.44 1013.92 1013.13 1012.57 1011.07 1009.13 1011.39 1013.54 1014.75 1015.40 1015.69 1016.01 1015.88
1019.73 1020.05 1018.38 1018.53 1018.90 1018.46 1017.83 1016.87 1017.00 1016.28 1015.91 1016.18 1015.74 1015.82 1016.17 1015.98 1015.94 1016.00 1015.59 1015.32 1015.21 1015.25 1015.42 1015.70 1015.40 1015.49 1014.28 1013.17 1013.79 1013.67 1013.48 1013.94 1014.09 1013.22 1012.29 1011.50 1009.74 1009.93 1011.79 1013.69 1014.94 1016.11 1016.51 1016.67 1016.74
1020.34 1019.97 1018.78 1018.37 1018.52 1018.07 1017.80 1017.36 1016.97 1016.41 1016.32 1016.32 1016.32 1016.10 1016.14 1016.62 1016.59 1015.67 1015.69 1015.61 1015.39 1015.70 1015.66 1015.68 1015.51 1015.00 1014.09 1013.90 1014.13 1014.26 1014.64 1014.73 1014.76 1013.92 1012.80 1012.53 1011.35 1011.18 1012.22 1014.09 1015.86 1016.73 1016.63 1016.84 1016.90
1021.16 1020.71 1019.80 1018.74 1018.67 1018.38 1018.50 1017.78 1017.34 1016.54 1016.52 1016.60 1016.51 1016.55 1016.75 1016.82 1016.84 1016.53 1016.70 1016.67 1016.39 1016.71 1016.35 1016.55 1016.23 1015.94 1014.69 1014.27 1014.72 1015.17 1015.37 1015.43 1016.19 1015.29 1014.14 1013.79 1013.33 1013.48 1013.86 1014.77 1016.31 1016.94 1017.04 1016.85 1016.96
1021.54 1021.22 1020.42 1020.08 1019.67 1019.35 1019.14 1018.34 1018.09 1017.83 1017.33 1017.01 1017.02 1017.49 1018.19 1018.16 1018.02 1017.96 1017.78 1017.86 1017.65 1017.78 1017.65 1017.55 1016.86 1016.50 1016.20 1016.14 1016.43 1016.34 1016.36 1016.00 1015.99 1015.58 1015.49 1014.62 1014.45 1014.18 1015.63 1016.27 1016.72 1017.30 1017.10 1016.90 1016.82
1021.50 1021.62 1021.36 1021.13 1020.45 1020.25 1019.89 1019.00 1018.91 1018.78 1019.21 1018.29 1018.54 1018.49 1019.16 1019.24 1019.46 1019.46 1019.79 1019.71 1019.80 1019.35 1018.96 1019.11 1018.30 1018.15 1017.66 1017.36 1017.33 1017.24 1016.77 1015.60 1015.71 1015.62 1015.79 1015.36 1015.00 1016.22 1016.71 1017.01 1017.31 1017.36 1017.36 1017.15 1016.81
1021.88 1021.77 1021.78 1021.60 1021.18 1021.22 1020.34 1019.90 1019.99 1019.95 1020.35 1020.20 1020.10 1020.25 1020.17 1020.14 1020.66 1020.82 1021.10 1021.11 1021.19 1021.07 1020.60 1020.54 1020.21 1020.10 1019.11 1018.90 1018.82 1017.79 1015.88 1015.69 1015.36 1015.08 1015.53 1016.03 1016.94 1017.54 1017.57 1017.65 1017.72 1017.46 1017.11 1016.87 1016.82
Wind_Speed
12 12 13 13 14 13 12 12 11 11 11 12 12 12 12 12 9 3 6 8 5 14 8 7 3 3 3 3 3 3 4 3 5 6 5 2 2 3 1 2 4 7 5 3 3
10 11 12 13 13 13 13 12 12 11 11 11 11 11 11 11 2 6 7 4 11 14 7 7 5 5 3 2 1 4 4 9 6 6 5 3 5 2 1 5 5 5 7 4 4
9 11 11 12 12 13 13 13 12 12 12 11 12 12 12 4 5 6 3 9 15 8 7 4 6 5 3 2 4 5 7 6 6 8 4 4 3 4 3 9 10 9 9 6 6
8 10 11 11 12 13 13 13 14 14 13 12 11 12 11 1 6 1 1 8 11 8 6 7 5 4 4 5 5 3 8 6 4 5 2 4 1 4 8 20 6 12 7 4 8
7 8 9 10 12 13 14 14 14 14 14 12 10 11 2 1 10 3 7 10 7 6 8 6 5 6 5 5 4 4 5 5 7 5 8 4 13 7 14 20 7 7 9 12 10
7 8 8 9 11 13 14 15 15 14 15 12 9 8 2 6 2 7 9 7 7 6 7 7 8 6 3 4 6 3 4 7 6 7 6 7 16 6 13 9 12 8 13 11 12
7 8 8 9 10 13 15 16 16 16 17 11 5 2 2 17 2 5 6 4 5 5 6 5 7 6 5 2 2 2 8 8 6 5 9 7 10 13 20 3 13 13 11 10 14
7 8 9 10 11 13 15 17 16 13 9 3 8 3 9 1 5 5 2 3 3 2 3 5 6 4 3 1 4 1 0 5 2 5 2 7 11 20 5 5 12 13 10 10 12
6 8 9 10 12 14 16 17 9 4 6 11 4 3 9 3 1 1 2 5 4 3 4 4 5 3 3 4 4 2 5 8 11 11 6 8 9 11 2 5 12 14 17 13 18
5 7 9 11 12 15 19 9 2 1 3 2 0 2 4 3 2 3 2 6 4 5 4 4 5 3 3 4 9 9 5 6 6 4 4 5 14 13 17 12 22 21 22 22 16
5 6 8 10 12 16 10 3 6 4 4 4 4 5 4 1 1 1 1 5 5 5 5 1 4 9 18 14 3 1 5 7 7 9 4 17 18 14 16 16 24 25 21 17 14
5 6 7 8 10 13 3 6 2 1 10 8 12 8 4 1 2 2 3 5 5 6 7 3 8 15 3 4 7 9 12 13 10 14 4 10 19 20 23 25 21 24 23 11 10
5 5 6 8 9 4 2 3 3 4 3 10 4 3 4 6 5 4 8 2 4 7 8 10 7 5 7 5 7 6 6 10 11 6 6 7 9 5 8 8 8 20 10 11 14
5 5 5 7 2 1 1 2 4 2 3 8 3 3 2 1 1 3 2 0 1 9 7 7 5 7 4 6 10 9 10 11 5 3 5 4 12 3 9 11 7 9 7 7 9
9 8 5 4 1 1 1 3 4 1 7 2 1 3 2 2 1 7 2 4 3 4 4 7 6 4 4 10 7 10 2 3 3 4 2 3 5 6 2 8 6 8 5 2 7
9 9 5 3 1 2 1 3 2 1 9 6 2 4 2 2 2 2 3 3 1 2 2 7 4 6 8 3 6 3 2 4 4 1 5 11 9 3 5 6 2 6 9 9 11
10 7 0 1 3 4 3 3 1 6 3 3 1 3 1 2 2 3 4 3 2 5 3 3 4 4 2 2 2 4 5 5 6 2 8 3 4 5 7 5 1 6 7 7 7
12 7 3 2 5 5 1 2 9 6 6 3 3 2 6 7 7 9 7 5 7 6 3 5 9 8 5 7 7 7 9 7 7 4 7 3 11 6 9 6 6 2 2 9 14
9 1 2 4 6 3 2 8 6 6 7 3 2 5 4 3 6 3 6 6 7 12 9 4 10 3 5 4 7 3 6 3 2 0 4 7 14 14 9 4 3 10 14 19 18
2 1 4 4 10 2 6 13 6 5 3 1 10 6 5 2 3 5 5 1 3 7 3 2 8 7 4 2 1 5 1 1 1 4 8 10 9 15 8 10 16 17 15 13 11
2 1 3 5 4 4 8 8 6 7 4 4 5 11 7 2 4 2 7 4 7 2 5 3 4 5 6 3 7 2 3 5 2 7 12 12 9 7 9 12 9 6 8 10 12
2 1 2 5 5 3 10 5 2 3 2 5 3 11 12 13 12 11 12 13 6 3 5 9 7 11 20 16 8 9 17 17 14 12 10 15 14 11 13 11 10 8 8 9 10
3 1 4 1 5 8 5 5 4 2 5 4 6 6 2 8 9 10 11 4 5 5 3 2 4 9 7 2 2 3 3 4 6 2 8 11 4 7 1 12 10 8 9 8 9
2 2 4 2 0 4 2 8 7 2 6 7 7 5 8 10 9 11 8 5 3 2 5 2 5 9 10 12 6 11 9 4 5 5 9 8 14 20 19 12 9 6 4 5 7
1 2 1 4 5 1 3 6 1 3 4 3 2 3 2 5 6 6 3 6 3 6 3 3 8 9 12 7 3 3 8 16 16 16 13 19 23 22 3 5 8 9 6 8 8
4 2 2 2 2 2 4 5 16 8 4 11 10 6 3 8 7 17 5 3 2 5 4 3 4 3 4 6 3 9 13 16 18 19 19 22 24 6 1 4 5 8 4 6 8
0 2 2 2 2 3 4 3 3 2 3 4 6 4 3 1 3 4 4 5 5 3 3 2 3 1 7 6 7 11 16 16 15 17 7 13 1 2 3 4 4 6 6 6 7
Wind_Direction
23 21 20 19 16 11 8 6 3 359 358 353 350 346 342 337 314 149 231 218 187 161 93 114 64 82 67 84 84 131 72 210 244 169 246 219 262 191 180 247 216 205 217 241 94
15 13 11 11 10 9 5 1 356 351 348 346 342 340 338 339 268 235 244 174 137 147 108 138 144 125 80 113 89 110 144 219 213 197 222 247 200 241 255 253 236 271 259 173 147
0 360 1 0 359 359 355 351 347 343 340 337 336 333 331 329 338 245 321 179 162 154 125 101 111 117 161 135 195 177 203 212 244 227 221 237 246 208 207 269 221 209 240 197 188
345 347 348 349 346 344 342 340 335 332 331 328 330 325 325 262 294 241 69 151 146 117 98 103 102 137 182 204 187 210 244 204 247 216 210 240 268 209 205 253 231 214 222 182 211
329 332 335 336 336 334 331 330 326 321 319 318 321 323 303 14 248 118 99 122 124 124 145 139 148 150 190 197 154 224 241 220 228 251 257 296 258 223 244 253 265 251 238 237 231
320 324 326 326 326 326 322 320 317 311 306 302 304 316 146 248 213 144 134 143 151 130 155 141 193 196 186 213 181 223 268 273 277 242 247 199 272 133 252 266 278 240 249 238 231
319 324 325 322 319 319 315 315 314 312 302 281 245 264 183 240 101 143 146 174 168 151 154 200 154 146 142 273 245 318 307 311 210 242 225 158 284 231 250 245 276 281 271 256 243
315 322 325 323 320 318 314 315 317 314 314 235 175 167 242 52 127 121 132 61 82 107 153 168 137 121 175 155 350 249 16 306 259 156 243 169 257 273 256 228 265 279 282 288 270
314 320 326 325 323 317 313 314 312 14 64 125 114 167 264 141 208 153 152 148 105 68 52 87 104 142 79 139 11 306 233 222 310 198 141 184 258 266 282 286 278 283 283 270 275
306 321 327 328 328 323 320 323 238 2 110 223 115 22 277 274 129 102 55 122 115 110 69 68 56 141 47 114 232 222 223 245 248 289 191 210 251 277 289 291 280 275 271 270 270
298 313 325 328 330 327 345 14 9 349 27 223 210 243 274 96 91 28 149 109 107 84 167 54 132 201 218 207 98 193 225 243 260 258 305 269 269 269 273 268 272 271 273 274 268
288 308 318 325 332 332 18 76 144 230 303 253 249 263 263 194 296 204 114 147 154 176 122 67 226 225 113 151 228 242 262 265 274 259 198 268 283 274 259 262 259 269 277 291 286
303 306 302 313 329 35 36 107 129 126 247 290 227 219 269 148 225 240 153 136 162 153 193 195 212 171 188 190 242 225 220 246 254 316 253 318 276 241 280 257 268 261 274 279 272
17 8 340 311 68 239 69 150 158 162 329 279 341 342 8 119 178 336 344 116 227 218 182 238 262 192 156 206 202 258 231 253 258 360 251 18 292 188 253 278 263 290 272 282 296
44 32 6 39 142 38 173 162 144 59 296 282 21 290 349 99 300 6 334 15 286 205 153 241 173 176 185 222 145 235 190 218 193 195 3 303 279 251 220 263 276 284 302 17 262
22 16 125 76 17 9 274 201 140 357 249 330 63 360 349 34 38 26 40 58 179 287 270 252 328 185 215 199 184 116 60 37 58 49 281 209 192 288 192 207 308 312 349 11 9
8 10 34 202 160 145 246 327 82 209 285 307 44 49 339 312 50 47 40 350 253 343 312 300 227 277 166 165 86 116 70 315 330 7 238 348 268 244 248 249 286 340 321 1 14
349 335 237 231 134 156 169 233 223 161 218 209 225 167 203 178 242 198 171 236 201 159 337 288 291 180 187 211 193 175 170 169 232 248 283 349 255 256 230 266 43 105 303 19 19
338 24 181 222 168 140 188 234 247 169 189 216 123 231 254 233 210 168 209 231 229 183 205 220 256 278 223 183 166 182 188 197 315 74 288 252 283 288 253 150 30 51 25 27 27
9 329 247 161 148 137 210 243 255 208 106 153 253 208 257 250 195 194 193 174 266 204 84 172 289 244 262 134 253 199 174 89 328 178 232 268 275 245 319 33 33 29 21 11 21
104 119 284 149 146 181 220 221 249 252 226 250 261 271 273 283 213 227 224 251 202 192 154 139 209 276 34 213 204 143 251 242 274 202 242 254 246 253 72 78 74 41 20 18 13
145 208 282 179 177 209 228 190 276 245 293 286 307 258 262 275 275 264 261 257 238 200 201 197 206 252 253 235 229 224 246 231 235 238 235 236 254 4 99 88 79 69 41 36 25
154 282 303 231 203 219 245 241 219 188 182 223 243 221 236 283 290 247 268 10 4 240 256 5 233 274 283 32 51 116 332 13 341 240 239 258 251 336 14 88 39 50 50 33 15
98 129 315 239 310 211 202 262 244 288 238 206 247 266 275 265 252 278 287 295 3 274 220 136 213 267 274 285 294 275 284 282 265 265 284 268 301 307 310 342 25 38 45 27 10
53 212 202 202 253 309 242 271 189 285 289 70 294 271 35 297 317 270 346 357 13 5 358 304 264 266 264 288 341 283 280 273 264 260 260 283 280 275 44 354 336 327 345 353 359
135 134 0 259 316 252 210 252 257 278 249 273 236 309 353 256 273 293 314 221 273 351 358 351 274 325 269 279 277 280 276 264 274 272 260 259 264 59 85 334 309 319 314 316 336
289 353 116 277 171 137 219 215 90 3 65 68 77 351 327 231 161 177 202 235 246 271 303 284 287 288 260 305 324 280 254 264 258 258 247 258 243 212 247 245 266 290 290 294 303